STARLINK-35206, 65614

Orbit data source: Space-Track

STARLINK-35206, 65614 is a payload satellite owned by SpaceX/Seattle (US) in SSO that was launched on Sat, 13 Sep 2025 UTC via an FALCON 9 launch vehicle from the Air Force Eastern Test Range (AFETR). Payload-class satellites include a variety of spacecraft equipped with specific instruments for various scientific and technological missions. These include communications satellites like Starlink; space stations such as the ISS; scientific satellites like the Hubble; Earth observation satellites from companies like Planet Labs, Umbra, and HawkEye 360; GPS; miniature CubeSats for education and research; and military/defense satellites.

Loading next visibility...
Identifier
65614, 2025-207Y
Orbit
SSO
Country
Flag of USUS
Related business
Manufacturer
SpaceX/Seattle
Mission
Operational Commercial Communications
Bus & Motor
STARLINK V2MO, Unknown motor
Mass
575 kg wet, ~530 kg dry
Launch date (UTC)
2025-09-13 (9 months ago)
Launch vehicle
FALCON 9
Launch site
Air Force Eastern Test Range (AFETR)
Object type
Payload
Rocket body
Debris
Shape & HBR
Box + 2 Pan, 17.7 m
Radar Cross Section
36.964 m², Large (>1 m²)

Expand to show TLE details & history
Last TLE update: 5 hours ago

TLE from 5 hours ago
0 STARLINK-35206
1 65614U 25207Y   26166.94259155  .00004729  00000-0  33140-3 0  9995
2 65614  97.3556 234.5370 0001881 115.7023 244.4399 15.05659363 42936
Epoch: 2026-06-15T22:37Z
TLE epoch observation values (Epoch: 2026-06-15T22:37:19.909Z)
Latitude
-0.00003°
Longitude
-9.01769°
Altitude
553.117 km
Speed
7.585 km/s
True Right ascension
15h 38m 08s
True Declination
0° 00' 00"
Sunlit
Object was in full shadow at epoch
Visualization orbit readout
Latitude
Unknown
Longitude
Unknown
Altitude
Unknown
Speed
Unknown
Apparent Right ascension
Unknown
Apparent Declination
Unknown
Sunlit
N/A
Visualization observer readout
Local Sidereal Time
14:41:44
Azimuth
Unknown
Elevation
Unknown
Doppler factor
Unknown
Orbital elements
Apogee altitude
547.768 km
Perigee altitude
545.163 km
Semi-major axis
6,924.602 km
Eccentricity
0.00019
Inclination
97.3556°
RAAN
234.537°
Arg. of periapsis
115.7023°
True anomaly
244.42046°
Mean anomaly
244.4399°
Eccentric anomaly
244.43018°
Mean motion
3.76661 °/min
Orbital period
95.58 mins
BSTAR
0.0003314
Loading maneuver chart data...
Computing Atmospheric mass density...
Loading historical data...
Loading historical data...
Loading historical data...
Loading historical data...
Loading historical data...
Loading historical data...
Loading historical data...

Documentation

Showing up to 5 results
|